El Chanar, Argentina
Current Conditions -  °F | °C
As of 1:00 PM on Friday 28 Nov 2014 (Local Time) from SANT Reporting Station
Scattered Clouds Scattered Clouds  
Wind Chill: 93°   Ceiling: Unl
Heat Index: 95°   Visibility: 6mi
Dew Point: 64°   Wind: 7mph
Humidity: 38%   Direction: 360°N
Pressure: 29.77"   Gusts: NA
Location:  26.77°S, 65.05°W
Report Text: SANT 281600Z 36006KT 9999 SCT040 SCT04534/18 Q1008
Loading
Personal Weather Stations






























Interactive Weather Map New forecast layout! Learn more

10-Day Weather Forecast

Advertisements
Track Severe Weather on mobile